パンスターズ彗星

C/2017 S3 ( PanSTARRS )

English version
Home page
Updated on October 7, 2017

---------------------------------------------------------------------

・ プロフィール

発見日 2017年9月23日
発見光度 21.5等
発見者 Pan-STARRS 1 telescope (Haleakala)

・ 軌道要素

Epoch 2018 Aug. 30.0 TT = JDT 2458360.5
T 2018 Aug. 15.92626 TT                                 MPCW
q   0.2084140            (2000.0)            P               Q
z  -0.0003116      Peri.  255.90245     +0.21704073     -0.96409218
 +/-0.0001471      Node   171.08578     +0.20839304     +0.19891892
e   1.0000650      Incl.   99.03108     -0.95365909     -0.17594752
From 30 observations 2017 Aug. 17-Sept. 27, mean residual 0".4.

・ 星図

・ 光度変化

        m1 = 10.0 + 5 logΔ + 10.0 log r

---------------------------------------------------------------------

軌道要素はM.P.E.C. 2017-T14に掲載されたものです。
星図はステラナビゲータ Ver.10 (アストロアーツ) で作成したものです。
光度グラフはComet for Windowsで作成したものです。

---------------------------------------------------------------------

Copyright(C) Seiichi Yoshida (comet@aerith.net). All rights reserved.